#timestamp,LO_Frequency,Hit,StdDev 
1525654815.5,286047001.2,P
1525654835.3,286047001.2,N
1525654855.2,286047001.0,N
1525654875.9,286047000.3,N
1525654895.7,286046998.5,N
1525654915.6,286047002.0,N
1525654935.4,286047004.2,Y
1525654955.2,286047001.9,P
1525654975.1,286047000.5,N
1525654976.0,286047000.5,N
1525654995.8,286046998.6,N
1525655015.7,286047001.7,N
1525655035.5,286047001.6,N
1525655055.3,286047000.5,N
1525655075.2,286046999.9,N
1525655095.0,286047002.8,N
1525655095.9,286047002.8,N
1525655115.8,286047002.8,N
1525655135.6,286047003.1,N
1525655155.4,286047003.6,N
1525655175.3,286047003.7,N
1525655195.1,286047001.3,N
1525655215.9,286047002.6,N
1525655235.7,286046999.7,N
1525655255.5,286047002.1,N
1525655275.4,286047001.5,N
1525655295.2,286047000.9,N
1525655315.1,286047001.2,N
1525655316.0,286047001.2,N
1525655335.8,286046999.9,N
1525655355.6,286047002.6,N
1525655375.5,286047000.3,N
1525655395.3,286046999.9,N
1525655415.1,286047002.7,N
1525655435.9,286046998.9,N
1525655455.7,286046999.9,N
1525655475.6,286046999.8,N
1525655495.4,286047000.6,N
1525655515.2,286046998.6,N
1525655535.1,286046996.5,N
1525655536.0,286046996.5,N
1525655555.8,286047001.1,N
1525655575.6,286046998.4,N
1525655595.5,286046998.6,N
1525655615.3,286046998.9,N
1525655635.2,286046999.4,N
1525655655.9,286046997.2,N
1525655675.7,286046999.4,N
1525655695.6,286046999.5,N
1525655715.4,286047000.9,N
1525655735.2,286047000.4,N
1525655755.1,286046998.2,N
1525655756.0,286046998.2,N
1525655775.8,286046999.9,N
1525655795.7,286046999.8,N
1525655815.5,286047001.4,N
1525655835.3,286046999.7,N
1525655855.2,286046998.3,N
1525655875.0,286047000.6,N
1525655875.9,286047000.6,N
1525655895.8,286046998.5,N
1525655915.6,286046999.4,N
1525655935.4,286046998.7,N
1525655955.3,286046999.3,N
1525655975.1,286047000.6,N
1525655995.9,286047001.1,N
1525656015.7,286047001.0,N
1525656035.5,286047001.1,N
1525656055.4,286046998.7,N
1525656075.2,286046999.1,N
1525656095.0,286046998.3,N
1525656095.9,286046998.3,N
1525656115.8,286047000.9,N
1525656135.6,286046998.7,N
1525656155.5,286046999.3,N
1525656175.3,286046999.3,N
1525656195.1,286046999.5,N
1525656215.9,286046998.6,N
1525656235.7,286046999.2,N
1525656255.5,286046997.5,N
1525656275.4,286046998.8,N
1525656295.2,286046997.0,N
1525656315.1,286046996.7,N
1525656316.0,286046996.7,N
1525656335.8,286046999.2,N
1525656355.6,286046997.7,N
1525656375.5,286046998.0,N
1525656395.3,286046997.0,N
1525656415.2,286046996.9,N
1525656435.9,286046996.5,N
1525656455.7,286046995.8,Y
1525656475.6,286046998.8,P
1525656495.4,286046998.8,P
1525656515.2,286047000.8,P
1525656535.1,286046998.1,N
1525656536.0,286046998.1,N
1525656555.8,286046999.4,N
1525656575.7,286046997.7,N
1525656595.5,286046997.0,Y
1525656615.3,286046999.5,P
1525656635.2,286046999.6,N
1525656655.0,286046998.1,P
1525656655.9,286046998.1,Y
1525656675.8,286046998.3,P
1525656695.6,286047000.6,N
1525656715.4,286046999.8,N
1525656735.3,286047004.3,Y
1525656755.1,286047005.5,P
1525656775.9,286047002.8,N
1525656795.7,286047000.7,N
1525656815.5,286047000.1,N
1525656835.4,286047002.4,N
1525656855.2,286047002.5,N
1525656875.1,286047000.2,N
1525656876.0,286047000.2,N
1525656895.8,286047000.9,N
1525656915.6,286047001.1,N
1525656935.5,286047000.7,N
1525656955.3,286046999.8,N
1525656975.1,286046998.9,N
1525656995.9,286046997.8,N
1525657015.7,286046998.6,N
1525657035.6,286047001.2,N
1525657055.4,286047002.4,N
1525657075.2,286046999.9,N
1525657095.1,286047001.0,N
1525657096.0,286047001.0,N
1525657115.8,286046998.8,N
1525657135.7,286046997.1,N
1525657155.5,286046999.4,N
1525657175.3,286046998.3,N
1525657195.2,286046998.9,N
1525657215.0,286046999.6,N
1525657215.9,286046999.6,N
1525657235.7,286046995.1,N
1525657255.6,286046996.4,N
1525657275.4,286046997.4,N
1525657295.3,286046997.0,N
1525657315.1,286046999.5,N
1525657316.0,286046999.5,N
1525657335.8,286047000.8,N
1525657355.7,286047000.3,N
1525657375.5,286047002.1,N
1525657395.4,286047000.7,N
1525657415.2,286047001.1,N
1525657435.0,286046999.4,N
1525657435.9,286046999.4,N
1525657455.8,286046998.8,N
1525657475.6,286046997.1,N
1525657495.4,286046998.8,N
1525657515.3,286046997.6,N
1525657535.1,286046995.4,N
1525657555.9,286046998.9,N
1525657575.7,286046998.2,N
1525657595.5,286046999.9,N
1525657615.4,286046998.2,N
1525657635.2,286047001.2,N
1525657655.0,286047002.3,N
1525657655.9,286047002.3,N
1525657675.8,286047001.9,N
1525657695.6,286047000.8,N
1525657715.5,286046998.2,N
1525657735.3,286047001.4,N
1525657755.1,286047004.0,N
1525657775.9,286047003.8,N
1525657795.7,286047004.0,N
1525657815.6,286047000.1,N
1525657835.4,286047000.8,N
1525657855.2,286046998.3,N
1525657875.1,286046998.9,N
1525657876.0,286046998.9,N
1525657895.8,286047001.4,N
1525657915.6,286047002.3,N
1525657935.5,286047002.7,N
1525657955.3,286047002.5,N
1525657975.2,286047000.4,N
1525657995.9,286047002.7,N
1525658015.7,286046999.7,N
1525658035.6,286047000.1,N
1525658055.4,286047001.1,N
1525658075.3,286047001.0,N
1525658095.1,286047001.9,N
1525658096.0,286047001.9,N
1525658115.8,286047003.5,N
1525658135.7,286047003.4,N
1525658155.5,286047002.4,N
1525658175.3,286047000.8,N
1525658195.2,286047000.0,N
1525658215.0,286046998.1,N
1525658215.9,286046998.1,N
1525658235.8,286047000.1,N
1525658255.6,286047000.8,N
1525658275.4,286046999.8,N
1525658295.3,286047001.9,N
1525658315.1,286046998.3,N
1525658335.9,286047001.5,N
1525658355.7,286047002.1,N
1525658375.5,286046998.9,N
1525658395.4,286047000.9,N
